Weather History for Clarksville, TN

Change the Weather History Date:

Wednesday, June 26, 2013

  Actual Average Record
Temperature  
Mean Temperature 80 °F -  
Max Temperature 89 °F - 103 °F (1988)
Min Temperature 70 °F - 48 °F (1974)
Degree Days  
Heating Degree Days 0    
Month to date heating degree days 0  
Since 1 July heating degree days 3952  
Cooling Degree Days 15    
Month to date cooling degree days 260  
Growing Degree Days 30 (Base 50)    
Moisture  
Dew Point 71 °F    
Average Humidity 75    
Maximum Humidity 93    
Minimum Humidity 56    
Precipitation  
Precipitation 0.27 in - 0.77 in (1968)
Month to date precipitation 2.32  
Sea Level Pressure  
Sea Level Pressure 29.90 in    
Wind  
Wind Speed 9 mph (SW)    
Max Wind Speed 23 mph    
Max Gust Speed 30 mph    
Visibility 9 miles    
Events Rain , Thunderstorm    
T = Trace of Precipitation, MM = Missing Value Source: NWS Daily Summary

Daily Weather History Graph

Daily Weather History Graph

Search for Another Location

Airport:

Trip Planner

Search our weather history database for the weather conditions in past years. The results will help you decide how hot, cold, wet, or windy it might be!

Date:

Astronomy

Jun. 26, 2013 Rise Set
Actual Time 5:32 AM CDT 8:12 PM CDT
Civil Twilight 5:02 AM CDT 8:42 PM CDT
Nautical Twilight 4:24 AM CDT 9:20 PM CDT
Astronomical Twilight 3:41 AM CDT 10:03 PM CDT
Moon 10:42 PM CDT (6/26) 9:17 AM CDT (6/26)
Length of Visible Light 15h 40m
Length of Day
14h 39m
Waning Gibbous, 85% of the Moon is Illuminated
Jun 26
Waning Gibbous
Jun 29
Last Quarter
Jul 8
New
Jul 15
First Quarter
Jul 22
Full

Hourly Weather History & Observations

Time (CDT) Temp. Heat Index Dew Point Humidity Pressure Visibility Wind Dir Wind Speed Gust Speed Precip Events Conditions
12:52 AM 75.9 °F - 72.0 °F 87% 29.96 in 10.0 mi South 4.6 mph - N/A   Clear
1:52 AM 75.0 °F - 72.0 °F 90% 29.96 in 10.0 mi SSW 4.6 mph - N/A   Clear
2:52 AM 75.0 °F - 72.0 °F 90% 29.95 in 10.0 mi SW 3.5 mph - N/A   Clear
3:52 AM 73.9 °F - 71.1 °F 91% 29.95 in 10.0 mi South 3.5 mph - N/A   Clear
4:52 AM 73.9 °F - 71.1 °F 91% 29.96 in 10.0 mi SSW 5.8 mph - N/A   Clear
5:52 AM 73.9 °F - 71.1 °F 91% 29.96 in 9.0 mi SSW 6.9 mph - N/A   Clear
6:52 AM 75.9 °F - 71.1 °F 85% 29.96 in 10.0 mi SSW 9.2 mph - N/A   Clear
7:52 AM 79.0 °F - 71.1 °F 77% 29.97 in 10.0 mi SSW 10.4 mph - N/A   Clear
8:52 AM 82.0 °F 86.7 °F 72.0 °F 71% 29.97 in 10.0 mi SW 11.5 mph - N/A   Clear
9:52 AM 84.9 °F 91.4 °F 73.0 °F 67% 29.97 in 10.0 mi WSW 11.5 mph 19.6 mph N/A   Clear
10:52 AM 86.0 °F 93.0 °F 73.0 °F 65% 29.96 in 10.0 mi Variable 6.9 mph - N/A   Clear
11:52 AM 86.0 °F 91.5 °F 71.1 °F 61% 29.92 in 10.0 mi SW 15.0 mph 23.0 mph N/A   Clear
12:52 PM 87.1 °F 92.8 °F 71.1 °F 59% 29.92 in 10.0 mi SW 15.0 mph 21.9 mph N/A   Clear
1:52 PM 87.1 °F 92.8 °F 71.1 °F 59% 29.90 in 10.0 mi SW 12.7 mph 21.9 mph N/A   Partly Cloudy
2:52 PM 88.0 °F 95.6 °F 73.0 °F 61% 29.87 in 10.0 mi SW 10.4 mph 19.6 mph N/A   Partly Cloudy
3:52 PM 88.0 °F 94.7 °F 72.0 °F 59% 29.85 in 10.0 mi SSW 13.8 mph 24.2 mph N/A   Partly Cloudy
4:52 PM 89.1 °F 96.0 °F 72.0 °F 57% 29.82 in 10.0 mi SW 11.5 mph - N/A   Clear
5:52 PM 88.0 °F 94.7 °F 72.0 °F 59% 29.81 in 10.0 mi SW 9.2 mph 19.6 mph N/A   Clear
6:52 PM 87.1 °F 93.6 °F 72.0 °F 61% 29.80 in 10.0 mi SW 11.5 mph 17.3 mph N/A   Clear
7:52 PM 84.0 °F 89.6 °F 72.0 °F 67% 29.80 in 10.0 mi SSW 9.2 mph - N/A   Clear
8:52 PM 82.9 °F 88.0 °F 72.0 °F 69% 29.81 in 10.0 mi SSW 5.8 mph - N/A   Clear
9:52 PM 82.9 °F 88.0 °F 72.0 °F 69% 29.82 in 10.0 mi SSW 9.2 mph - N/A   Clear
10:02 PM 82.4 °F 87.2 °F 71.6 °F 70% 29.85 in 10.0 mi SSW 9.2 mph - N/A Thunderstorm Thunderstorm
10:17 PM 82.4 °F 87.2 °F 71.6 °F 70% 29.85 in 10.0 mi SSW 8.1 mph - N/A   Clear
10:25 PM 82.4 °F 87.2 °F 71.6 °F 70% 29.86 in 10.0 mi SSW 8.1 mph - N/A Thunderstorm Partly Cloudy
10:47 PM 73.4 °F - 68.0 °F 83% 29.89 in 2.5 mi North 17.3 mph 29.9 mph 0.15 in Rain , Thunderstorm Thunderstorms and Rain
10:52 PM 72.0 °F - 68.0 °F 87% 29.86 in 1.5 mi NW 6.9 mph 27.6 mph 0.18 in Rain , Thunderstorm Heavy Thunderstorms and Rain
10:58 PM 71.6 °F - 69.8 °F 94% 29.88 in 3.0 mi West 6.9 mph - 0.01 in Rain , Thunderstorm Light Thunderstorms and Rain
11:52 PM 71.1 °F - 68.0 °F 90% 29.89 in 3.0 mi WSW 5.8 mph - 0.06 in Rain , Thunderstorm Heavy Thunderstorms and Rain